Zurück zum Katalog

COSMOS 2251 DEB

AktivLEO
NORAD 34726·DEBRIS·🇷🇺 Russia

Gestartet Jun 16, 1993 von Plesetsk Cosmodrome

Loading…

Nächste Überflüge (nächste 24 Stunden)

TLE

AktuellSource: Space-Track

Epoche: Sep 14, 2026, 13:59 UTC

1 34726U 93036YU  26257.58319517  .00000946  00000-0  19885-3 0  9997
2 34726  74.0282 179.6395 0044576 258.9736 100.6415 14.60469083925287

Verfolge COSMOS 2251 DEB in Echtzeit mit AllMySat

Download on the App Store